Wind_Speed
7 10 10 10 10 13 3 17 20 12 15 16 22 11 9 17 15 17 6 7 9 11 10 9 9 11 8 7 5 7 7 9 11 9 8 8 8 11 14 14 12 10 7 4
8 11 11 14 9 3 7 6 11 8 15 9 15 11 11 7 16 14 12 10 14 12 12 12 10 7 8 6 5 7 9 9 13 10 7 7 7 12 15 14 11 11 8 6
10 10 11 12 4 3 6 4 10 16 10 19 14 11 12 7 8 10 3 9 12 14 13 10 10 7 6 7 6 9 9 9 11 11 11 10 11 12 12 12 11 11 9 5
13 13 11 7 6 7 6 4 17 11 21 17 15 14 12 11 5 10 5 10 11 5 7 9 11 10 8 9 8 8 7 12 13 13 12 11 11 12 10 11 9 7 8 6
13 10 7 14 20 10 9 11 10 11 8 20 20 23 7 12 3 7 8 7 8 8 9 11 11 8 7 7 10 10 6 10 15 14 13 13 13 12 11 11 8 9 7 9
11 6 5 12 16 16 6 8 7 2 3 12 20 20 11 6 7 2 3 4 5 11 8 9 10 14 7 6 8 8 6 9 15 16 15 14 13 12 11 11 9 10 10 6
8 11 5 5 8 11 18 9 4 3 10 14 15 14 7 8 16 9 1 4 8 8 7 7 8 9 7 8 6 5 7 8 14 14 14 15 14 14 13 12 10 10 10 8
9 10 7 9 6 10 9 13 6 8 8 13 12 16 20 21 14 3 6 3 3 10 11 6 9 6 9 9 5 4 7 8 10 15 15 16 17 16 15 13 14 12 14 10
9 5 2 3 3 9 5 9 5 10 9 13 18 19 17 21 21 6 2 2 1 5 4 5 11 10 6 7 7 6 6 9 10 10 13 15 16 15 13 12 13 14 16 15
3 5 6 5 3 6 10 3 7 5 9 10 16 19 16 18 21 13 11 4 2 3 3 6 13 13 11 8 9 8 5 5 10 11 10 11 12 12 11 10 9 8 10 13
8 11 9 9 8 2 9 6 6 6 12 13 17 18 16 17 19 17 9 8 9 3 4 3 8 13 10 11 12 9 7 4 5 8 10 10 10 9 10 9 9 8 9 10
18 16 11 15 13 9 10 17 16 15 16 19 21 19 15 11 6 8 7 18 9 6 1 2 4 7 7 9 10 10 10 10 8 7 7 9 11 11 12 11 11 10 10 11
24 26 22 20 22 20 18 24 20 24 29 23 19 22 15 13 6 8 8 16 14 9 9 5 4 5 7 7 7 8 10 11 11 11 11 10 10 10 12 12 12 11 10 11
23 23 25 20 29 31 31 33 27 29 31 28 25 25 19 18 15 16 5 8 17 5 14 14 13 13 10 7 6 7 11 11 12 12 12 12 10 11 12 12 13 13 13 13
34 27 25 23 26 33 35 39 35 32 34 33 33 26 30 24 22 26 11 6 6 12 8 14 17 18 15 11 11 11 10 10 10 11 11 10 11 12 13 14 14 14 15 16
39 35 32 23 30 37 39 41 38 35 27 29 30 34 33 37 39 20 14 13 5 5 11 13 20 16 10 11 11 12 12 10 10 9 9 9 9 10 11 11 12 14 14 16
37 38 34 24 25 26 33 40 38 40 40 39 40 32 37 43 46 43 26 23 17 15 13 16 18 17 12 12 12 12 11 10 10 9 10 10 10 10 11 11 12 14 14 16
37 39 41 33 32 33 23 25 32 44 42 41 41 35 27 29 37 41 36 36 31 20 15 20 20 18 16 15 14 13 12 11 11 11 12 12 12 12 12 13 14 15 17 17
32 39 44 44 38 36 32 30 29 31 38 40 41 36 32 27 36 45 45 34 26 21 16 24 24 24 20 19 18 15 14 12 11 12 13 14 15 16 16 16 15 16 17 16
31 35 40 40 43 40 33 33 36 35 42 39 39 38 32 37 31 25 33 26 25 22 24 22 25 29 30 28 23 20 17 12 9 10 13 14 15 14 15 17 15 15 18 19
29 33 35 36 38 37 32 27 33 41 43 42 42 38 33 35 40 37 28 27 28 33 29 32 25 26 31 37 29 23 19 12 12 14 14 13 13 15 16 18 17 23 23 23
26 28 31 35 39 41 39 37 35 37 40 45 43 39 37 43 36 23 25 33 31 28 22 23 28 31 36 43 31 24 18 15 14 17 15 13 14 17 20 22 25 27 27 26
29 26 27 29 32 33 32 33 33 37 41 44 46 43 38 33 40 29 28 35 39 35 25 26 19 21 30 36 30 23 17 19 17 16 17 19 20 23 24 27 29 30 29 30
29 28 30 30 31 33 33 35 35 35 42 48 43 48 41 39 42 45 36 36 32 34 33 29 25 30 37 37 37 27 22 24 19 19 22 23 25 24 23 25 27 29 30 31
28 30 35 28 27 27 28 30 31 33 36 43 47 47 49 49 42 45 45 43 40 35 38 41 27 27 36 36 34 46 26 17 19 23 25 26 24 22 22 25 28 29 29 34
27 32 31 29 27 26 26 29 33 34 36 40 45 40 46 51 51 53 48 46 34 45 49 46 23 30 43 39 30 24 25 17 23 26 29 25 24 24 25 26 28 28 32 36
Wind_Direction
298 291 297 288 267 282 2 16 340 331 320 355 349 312 301 259 270 229 275 290 227 188 201 199 204 210 204 223 223 231 230 215 210 215 221 223 218 206 187 169 160 178 189 203
288 295 300 288 248 303 89 30 322 314 298 321 316 310 318 309 314 16 336 296 265 202 193 193 208 215 224 228 230 241 232 214 203 201 203 201 169 165 173 169 167 171 179 183
274 275 272 261 257 334 134 304 328 312 302 311 317 308 305 345 22 9 351 269 252 244 186 193 214 210 202 218 232 251 229 218 207 201 190 181 161 165 177 178 179 177 187 203
275 276 273 288 333 335 176 305 307 295 313 319 332 337 325 328 8 3 254 198 226 213 190 178 206 210 215 214 219 238 229 208 206 205 196 189 196 182 183 187 190 201 207 199
287 283 332 56 27 331 218 267 290 304 15 56 14 358 304 20 27 108 100 135 201 196 193 193 181 182 219 206 216 215 221 227 208 206 208 193 191 198 199 213 208 197 214 227
276 222 115 39 21 5 300 255 289 57 24 0 356 356 15 45 28 131 156 170 166 197 187 198 181 178 246 255 224 209 209 215 212 207 212 208 203 211 220 228 215 215 218 238
298 266 218 33 3 335 323 218 203 268 355 7 6 357 2 28 0 346 61 169 171 173 181 142 153 185 220 208 232 199 193 197 206 204 205 212 210 216 226 227 234 226 231 244
276 234 233 359 355 355 300 210 225 271 346 349 6 3 18 20 91 26 324 160 154 184 194 156 181 176 182 207 233 223 195 173 202 209 207 215 222 221 226 227 230 233 235 245
328 205 122 76 348 6 352 243 250 303 325 329 352 357 19 352 8 355 7 301 32 164 179 192 183 197 202 214 231 216 202 175 185 208 219 220 226 228 227 227 231 238 245 244
47 256 193 264 120 25 36 255 257 359 326 318 327 324 341 335 351 359 344 331 7 116 116 191 197 190 199 209 223 214 209 183 187 203 202 208 206 215 213 214 218 218 237 240
242 265 200 225 287 341 324 309 241 267 279 288 301 313 320 319 335 346 288 329 290 59 13 247 224 191 201 201 203 196 189 199 196 191 200 199 207 210 214 206 210 204 217 238
236 252 244 204 228 250 239 271 274 270 275 265 284 290 310 293 318 335 356 19 2 210 57 2 229 218 200 188 195 193 191 197 198 194 197 207 210 216 225 228 230 222 219 221
239 252 253 213 217 225 241 240 251 265 277 285 290 286 284 274 287 323 12 2 304 285 196 194 193 188 189 204 200 203 194 197 200 212 220 226 215 210 215 220 224 224 228 236
258 255 246 258 225 229 232 235 244 248 257 263 267 281 261 251 270 283 307 356 344 213 211 203 211 218 215 215 226 236 239 226 213 210 213 218 226 234 239 242 244 244 244 245
273 276 258 257 237 234 241 242 243 252 259 261 260 259 273 269 272 280 297 269 343 230 194 240 221 221 217 229 224 224 215 223 230 232 232 230 244 251 256 260 262 261 261 262
270 272 273 278 251 242 241 249 252 243 264 267 277 260 259 266 276 275 291 276 156 264 275 248 234 239 242 239 231 215 215 217 222 219 222 224 214 232 245 252 263 269 267 267
258 264 266 259 261 259 254 252 256 262 266 270 273 277 266 276 267 267 274 290 289 319 240 248 237 209 206 218 223 220 223 215 215 230 233 239 242 243 249 262 268 265 263 266
248 257 263 265 262 259 256 258 257 255 263 267 270 270 269 273 268 270 273 282 281 300 216 235 236 228 194 198 219 219 223 233 239 247 255 259 264 264 266 268 270 273 274 276
253 244 253 259 258 259 252 249 252 261 258 261 265 268 258 243 246 251 258 276 275 269 230 244 245 241 221 214 206 223 224 238 255 260 262 265 269 271 270 271 273 275 283 284
259 256 251 259 262 266 263 255 257 257 260 259 261 264 258 254 253 226 255 261 256 251 250 239 243 239 248 235 223 212 228 223 242 259 260 261 274 278 273 261 262 293 299 288
263 260 260 260 262 269 270 263 260 260 260 259 260 263 267 267 268 255 249 247 254 261 265 251 258 264 246 241 228 222 216 220 238 252 256 256 259 263 265 260 267 295 299 298
264 265 264 265 266 268 271 271 266 263 263 260 258 258 259 260 261 255 255 254 256 244 244 248 248 265 267 227 223 223 212 228 238 243 245 254 262 265 266 271 279 284 288 290
276 273 270 269 271 272 270 269 267 264 264 263 261 256 255 262 276 254 251 257 268 269 253 244 260 248 206 217 209 211 213 231 236 242 256 267 274 274 275 278 278 281 287 290
282 280 272 266 265 268 271 272 270 261 260 261 262 261 261 256 265 267 260 259 264 269 261 255 233 216 197 225 215 224 215 228 232 241 258 272 272 275 279 279 283 288 291 293
272 269 271 274 275 282 285 283 278 273 269 265 259 256 255 251 260 261 259 262 257 251 264 253 223 219 221 240 226 223 197 209 233 244 264 269 278 284 284 286 291 294 296 298
269 264 264 269 280 284 285 285 285 280 265 260 260 253 249 250 254 259 259 260 253 257 254 252 223 206 206 206 208 219 239 227 244 259 267 274 281 285 291 294 296 291 296 300
Height
5908 5907 5905 5903 5902 5902 5901 5899 5901 5901 5899 5898 5895 5896 5898 5896 5888 5887 5891 5895 5892 5892 5894 5895 5897 5899 5900 5901 5901 5901 5902 5903 5904 5906 5907 5907 5908 5910 5913 5915 5916 5918 5919 5919
5907 5904 5903 5902 5901 5899 5898 5899 5902 5901 5898 5894 5895 5895 5896 5893 5894 5889 5889 5895 5896 5889 5890 5893 5896 5896 5898 5897 5898 5898 5901 5902 5903 5904 5905 5906 5907 5909 5912 5914 5916 5918 5918 5918
5903 5904 5903 5901 5899 5898 5897 5899 5898 5897 5895 5895 5894 5893 5893 5891 5889 5886 5887 5890 5895 5894 5889 5891 5891 5892 5894 5896 5897 5898 5899 5900 5901 5903 5904 5906 5907 5909 5912 5913 5915 5915 5916 5917
5900 5900 5899 5898 5897 5896 5897 5898 5894 5895 5896 5895 5895 5892 5890 5887 5885 5885 5884 5884 5891 5889 5888 5891 5890 5890 5893 5894 5895 5896 5897 5898 5900 5901 5903 5905 5907 5908 5911 5912 5913 5914 5914 5916
5897 5897 5897 5897 5896 5896 5897 5894 5895 5895 5896 5894 5893 5891 5888 5885 5886 5885 5882 5881 5884 5884 5888 5891 5887 5889 5890 5891 5892 5893 5893 5896 5897 5899 5902 5904 5905 5908 5908 5910 5911 5912 5912 5914
5895 5895 5893 5893 5894 5895 5895 5893 5893 5895 5895 5893 5890 5890 5889 5887 5886 5884 5883 5880 5879 5881 5884 5887 5884 5887 5889 5890 5892 5891 5890 5893 5894 5896 5899 5902 5904 5905 5905 5907 5909 5911 5910 5911
5894 5893 5891 5891 5892 5893 5893 5892 5892 5894 5893 5891 5887 5886 5887 5889 5885 5884 5884 5882 5880 5881 5883 5883 5882 5884 5886 5888 5889 5888 5889 5891 5892 5894 5897 5900 5901 5901 5902 5904 5906 5908 5908 5908
5892 5893 5891 5892 5892 5891 5889 5890 5890 5890 5890 5889 5887 5888 5888 5889 5883 5881 5881 5882 5882 5880 5881 5880 5882 5884 5884 5886 5886 5887 5888 5889 5891 5892 5894 5897 5898 5898 5900 5902 5903 5905 5905 5906
5888 5890 5890 5890 5889 5889 5887 5888 5890 5889 5889 5888 5888 5887 5888 5887 5886 5880 5881 5881 5878 5879 5879 5881 5882 5883 5883 5884 5885 5887 5888 5888 5889 5891 5892 5893 5895 5896 5897 5899 5900 5902 5903 5903
5885 5887 5888 5887 5886 5887 5888 5889 5889 5888 5888 5887 5886 5883 5884 5885 5885 5880 5880 5878 5877 5877 5876 5878 5879 5881 5881 5882 5884 5885 5886 5886 5887 5889 5890 5891 5893 5894 5895 5896 5898 5899 5900 5900
5882 5882 5885 5886 5886 5885 5887 5887 5886 5885 5884 5882 5882 5884 5883 5883 5882 5880 5879 5881 5881 5878 5877 5877 5878 5880 5880 5880 5882 5882 5883 5885 5886 5887 5889 5890 5891 5892 5894 5895 5896 5897 5897 5898
5879 5880 5880 5884 5883 5882 5882 5880 5882 5882 5882 5881 5879 5881 5879 5873 5874 5872 5874 5879 5880 5877 5877 5877 5877 5879 5881 5879 5881 5880 5881 5883 5884 5886 5887 5889 5889 5890 5891 5892 5894 5894 5895 5895
5876 5875 5876 5881 5880 5879 5878 5876 5876 5877 5877 5877 5877 5877 5875 5872 5874 5872 5875 5875 5874 5877 5874 5875 5876 5876 5879 5881 5881 5881 5881 5881 5882 5883 5885 5887 5887 5887 5888 5889 5891 5891 5892 5893
5869 5870 5870 5873 5875 5873 5873 5871 5871 5871 5872 5873 5873 5873 5871 5869 5873 5873 5871 5870 5873 5872 5874 5873 5875 5876 5876 5877 5878 5879 5881 5881 5881 5881 5882 5883 5884 5885 5886 5886 5887 5887 5887 5889
5861 5864 5864 5866 5866 5864 5865 5865 5865 5866 5866 5868 5868 5870 5866 5868 5869 5868 5869 5869 5867 5873 5870 5873 5873 5874 5872 5873 5874 5875 5876 5878 5879 5879 5879 5879 5881 5882 5882 5883 5883 5882 5882 5883
5852 5854 5854 5860 5857 5856 5856 5857 5860 5862 5862 5862 5861 5863 5863 5861 5862 5866 5872 5871 5865 5867 5869 5871 5872 5873 5872 5872 5873 5873 5874 5875 5877 5878 5879 5879 5878 5880 5881 5881 5880 5879 5879 5879
5845 5843 5845 5850 5850 5850 5853 5853 5854 5854 5854 5854 5854 5859 5858 5855 5856 5858 5867 5867 5867 5864 5865 5868 5869 5868 5868 5870 5872 5873 5873 5873 5875 5877 5877 5878 5878 5877 5877 5876 5877 5877 5875 5875
5835 5835 5835 5838 5841 5840 5848 5845 5844 5844 5845 5845 5844 5846 5846 5849 5847 5849 5855 5858 5860 5861 5863 5864 5866 5866 5863 5865 5869 5870 5871 5872 5873 5873 5875 5875 5876 5875 5874 5874 5874 5874 5873 5871
5827 5827 5825 5825 5828 5831 5835 5836 5836 5835 5835 5835 5835 5837 5837 5835 5838 5843 5847 5852 5854 5855 5857 5862 5864 5865 5864 5863 5862 5865 5865 5867 5869 5870 5870 5871 5871 5872 5872 5870 5870 5869 5867 5866
5818 5817 5818 5819 5817 5819 5825 5828 5827 5826 5822 5825 5826 5827 5831 5833 5835 5838 5840 5839 5843 5848 5850 5852 5854 5859 5861 5859 5859 5856 5861 5861 5864 5865 5865 5864 5865 5865 5865 5864 5863 5862 5861 5859
5811 5809 5809 5810 5809 5810 5813 5818 5818 5816 5817 5817 5816 5819 5824 5824 5823 5826 5829 5829 5834 5839 5842 5847 5851 5851 5854 5855 5853 5853 5851 5853 5854 5856 5857 5857 5857 5858 5858 5858 5857 5855 5854 5852
5803 5802 5802 5802 5801 5802 5803 5806 5808 5806 5803 5805 5806 5810 5814 5816 5812 5814 5820 5822 5825 5830 5836 5836 5838 5842 5839 5845 5845 5849 5840 5844 5845 5849 5851 5850 5851 5851 5851 5851 5849 5848 5846 5845
5793 5795 5795 5794 5792 5790 5792 5793 5795 5794 5793 5793 5794 5801 5802 5806 5806 5803 5809 5809 5815 5821 5827 5826 5827 5827 5833 5837 5835 5835 5831 5835 5839 5843 5845 5845 5844 5844 5843 5842 5839 5838 5836 5834
5782 5783 5782 5782 5781 5780 5781 5782 5783 5784 5782 5782 5785 5789 5794 5797 5797 5793 5802 5802 5805 5805 5807 5808 5812 5812 5814 5821 5822 5820 5816 5825 5832 5836 5839 5838 5838 5837 5836 5833 5831 5829 5827 5825
5775 5772 5770 5772 5771 5772 5771 5771 5771 5772 5771 5769 5770 5776 5781 5783 5782 5782 5786 5790 5796 5793 5790 5793 5797 5799 5799 5803 5803 5759 5783 5811 5822 5829 5830 5830 5827 5827 5827 5825 5822 5820 5818 5815
5764 5762 5762 5763 5763 5761 5761 5759 5756 5757 5758 5756 5753 5760 5764 5767 5771 5770 5771 5775 5781 5778 5773 5782 5776 5781 5784 5791 5783 5791 5800 5805 5814 5818 5821 5820 5818 5820 5819 5816 5814 5812 5810 5805